Location: Howard City Library
(37.4684°N, 96.2639°W)
Time: 16:55:39
(UTC+00:00)

Cosmos 2082 Rocket - Pass Details

Date: 18 February 2020
Orbit: 833 x 854 km, 71.0° (Epoch: 29 March)

Event Time Altitude Azimuth Distance (km) Brightness Sun altitude
Rises 00:54:46 0° 336° (NNW) 3,395 5.6 -10.3°
Reaches altitude 10° 00:57:13 10° 336° (NNW) 2,459 4.8 -10.8°
Maximum altitude 01:02:51 82° 251° (WSW) 854 2.3 -11.9°
Drops below altitude 10° 01:08:31 10° 163° (SSE) 2,459 4.5 -13.0°
Sets 01:10:57 0° 162° (SSE) 3,393 5.2 -13.5°
